306 visiteurs
Prévisions de votre ville :
Vigilance : 5 départements Mise à jour le 20/08/2019 à 16:05 - Voir la carte

Paris Roissy CDG (95380) le 21/08/2019 à 00:00 Choisir station

15.4°C 69 % N Rafales 9 km/h
Vit. moyenne 6 kmh/h

Relevés météo quotidiens pour la station de :

UTC
S: Synop
M: Metar
Loc T°C
(°C)
Td
(°C)
HR
(%)
Vis
(km)
Néb
(octa)
Vent
(km/h)
Pression
(mb)
Précipitations
(mm)
Temps
              MOY
10 min
DIR RAF 1h MESURE VAR SUR 3h    
S 00 h 02h 14.5 12.7 89 - 20 26 1021.7 -0.6/3h 0.0/6h - 0.0/3h -
S 01 h 03h 14.2 12.4 89 - 22 26 1021.4 -0.7/3h 0.0/1h -
S 02 h 04h 14.0 12.7 92 - 22 33 1021.2 -0.7/3h 0.0/1h -
S 03 h 05h 14.2 13.2 94 20 2/8 22 26 1020.9 -0.8/3h 0.0/3h
S 04 h 06h 14.4 12.9 91 - 19 26 1020.4 -1.0/3h 0.0/1h -
S 05 h 07h 14.6 13.3 92 - 22 31 1020.4 -0.7/3h 0.2/1h -
S 06 h 08h 15.0 13.5 91 15 8/8 22 31 1020.7 -0.1/3h 0.2/12h - 0.2/3h
S 07 h 09h 15.6 14.3 92 - 20 37 1020.9 +0.6/3h 0.0/1h -
S 08 h 10h 16.6 14.6 88 - 26 35 1020.9 +0.5/3h 0.0/1h -
S 09 h 11h 17.6 14.9 84 20 7/8 28 37 1021.0 +0.3/3h 0.0/3h
S 10 h 12h 18.5 14.6 78 - 24 35 1020.9 +0.1/3h 0.0/1h -
S 11 h 13h 19.6 15.5 77 - 24 35 1021.1 +0.3/3h 0.0/1h -
S 12 h 14h 19.5 14.5 73 - 30 39 1021.0 +0.1/3h 0.0/6h - 0.0/3h -
S 13 h 15h 19.9 14.7 72 - 28 39 1020.7 -0.2/3h 0.0/1h -
S 14 h 16h 19.3 14.8 75 - 31 41 1020.4 -0.7/3h 0.0/1h -
S 15 h 17h 18.8 14.5 76 20 5/8 26 41 1020.3 -0.7/3h 0.0/3h
S 16 h 18h 19.1 13.9 72 - 24 39 1020.3 -0.4/3h 0.0/1h -
S 17 h 19h 18.7 14.4 76 - 24 39 1020.1 -0.3/3h 0.0/1h -
S 18 h 20h 17.5 14.2 81 18 7/8 20 35 1019.9 -0.5/3h 0.0/12h - 0.0/3h
S 19 h 21h 16.3 14.1 87 - 17 31 1019.8 -0.6/3h 0.0/1h -
S 20 h 22h 15.9 14.6 92 - 19 26 1019.4 -0.8/3h 0.0/1h -
S 21 h 23h 15.9 14.8 93 20 7/8 20 30 1019.7 -0.2/3h 0.0/3h
S 22 h 00h 15.6 14.8 95 - 30 39 1018.9 -0.9/3h 0.4/1h -
S 23 h 01h 15.6 14.6 94 - 31 43 1018.5 -0.9/3h 0.0/1h -
evolution des temperatures
cumul des precipitations
vent moyen et rafales
pression atmospherique

Un tiret (-) signifie que les données ne sont pas disponibles.

Passez la souris sur les pictos temps pour avoir plus de précisions. Passez les flèches sur l'icône de la direction du vent pour voir la direction précise en degrés.

Les données de l'heure en cours sont disponibles à partir de H+15 minutes.


S signifie station Synop, plus complète qu'une station Metar (M). Il y a +1h de différence entre l'heure UTC et l'heure légale en hiver et +2h en été.

Td est la mesure du point de rosée.

HR est l'humidité relative/p>

Vis est la visibilité

Néb est la nébulosité du ciel (couverture nuageuse) exprimée en octas (de 0/8 à 8/8).

Vent moy 10 min donne le vent moyen sur les 10 minutes qui précèdent le relevé.

Vent raf 1h donne la rafale maximale mesurée dans l'heure qui précède le relevé.


Les données les plus anciennes remontent à avril 2014.

Les données présentées sur cette page proviennent des stations météo officielles. Les relevés sont effectués aux normes en vigueur (anémomètre à 10m de haut, thermomètre sous abri normalisé à 2m du sol...)

Météo 60 décline toute responsabilité en cas d'absence de données, d'erreurs, de mauvaise utilisation ou interprétation et n'est pas habilité à fournir des certificats intempéries.